Time,TemperatureF,DewpointF,PressureIn,WindDirection,WindDirectionDegrees,WindSpeedMPH,WindSpeedGustMPH,Humidity,HourlyPrecipIn,Conditions,Clouds,dailyrainin,SoftwareType,DateUTC
2013-12-10 00:03:00,15.0,-99.9,0.00,WSW,248,14.0,17.0,-999,0.00,,,-99.99,,2013-12-10 06:03:00,
2013-12-10 00:08:00,15.0,-99.9,0.00,WSW,241,13.0,16.0,-999,0.00,,,-99.99,,2013-12-10 06:08:00,
2013-12-10 00:13:00,15.0,-99.9,0.00,SW,235,14.0,17.0,-999,0.00,,,-99.99,,2013-12-10 06:13:00,
2013-12-10 00:18:00,14.0,-99.9,0.00,SW,234,14.0,18.0,-999,0.00,,,-99.99,,2013-12-10 06:18:00,
2013-12-10 00:23:00,14.0,-99.9,0.00,WSW,247,14.0,17.0,-999,0.00,,,-99.99,,2013-12-10 06:23:00,
2013-12-10 00:28:00,14.0,-99.9,0.00,SW,233,14.0,18.0,-999,0.00,,,-99.99,,2013-12-10 06:28:00,
2013-12-10 00:33:00,14.0,-99.9,0.00,WSW,244,15.0,18.0,-999,0.00,,,-99.99,,2013-12-10 06:33:00,
2013-12-10 00:38:00,14.0,-99.9,0.00,WSW,241,14.0,17.0,-999,0.00,,,-99.99,,2013-12-10 06:38:00,
2013-12-10 00:43:00,15.0,-99.9,0.00,WSW,243,17.0,21.0,-999,0.00,,,-99.99,,2013-12-10 06:43:00,
2013-12-10 00:48:00,14.0,-99.9,0.00,WSW,241,17.0,21.0,-999,0.00,,,-99.99,,2013-12-10 06:48:00,
2013-12-10 00:53:00,14.0,-99.9,0.00,SW,228,17.0,20.0,-999,0.00,,,-99.99,,2013-12-10 06:53:00,
2013-12-10 00:58:00,15.0,-99.9,0.00,SW,231,17.0,20.0,-999,0.00,,,-99.99,,2013-12-10 06:58:00,
2013-12-10 01:03:00,15.0,-99.9,0.00,WSW,254,17.0,19.0,-999,0.00,,,-99.99,,2013-12-10 07:03:00,
2013-12-10 01:08:00,16.0,-99.9,0.00,SW,228,17.0,21.0,-999,0.00,,,-99.99,,2013-12-10 07:08:00,
2013-12-10 01:13:00,16.0,-99.9,0.00,WSW,248,17.0,20.0,-999,0.00,,,-99.99,,2013-12-10 07:13:00,
2013-12-10 01:18:00,16.0,-99.9,0.00,SW,228,16.0,19.0,-999,0.00,,,-99.99,,2013-12-10 07:18:00,
2013-12-10 01:23:00,16.0,-99.9,0.00,WSW,237,17.0,20.0,-999,0.00,,,-99.99,,2013-12-10 07:23:00,
2013-12-10 01:28:00,17.0,-99.9,0.00,WSW,257,16.0,19.0,-999,0.00,,,-99.99,,2013-12-10 07:28:00,
2013-12-10 01:33:00,17.0,-99.9,0.00,WSW,240,15.0,18.0,-999,0.00,,,-99.99,,2013-12-10 07:33:00,
2013-12-10 01:38:00,17.0,-99.9,0.00,West,259,16.0,18.0,-999,0.00,,,-99.99,,2013-12-10 07:38:00,
2013-12-10 01:43:00,18.0,-99.9,0.00,WSW,254,16.0,18.0,-999,0.00,,,-99.99,,2013-12-10 07:43:00,
2013-12-10 01:48:00,18.0,-99.9,0.00,WSW,252,16.0,20.0,-999,0.00,,,-99.99,,2013-12-10 07:48:00,
2013-12-10 01:53:00,18.0,-99.9,0.00,West,264,16.0,19.0,-999,0.00,,,-99.99,,2013-12-10 07:53:00,
2013-12-10 01:58:00,19.0,-99.9,0.00,WSW,248,15.0,19.0,-999,0.00,,,-99.99,,2013-12-10 07:58:00,
2013-12-10 02:03:00,19.0,-99.9,0.00,West,261,16.0,19.0,-999,0.00,,,-99.99,,2013-12-10 08:03:00,
2013-12-10 02:08:00,18.0,-99.9,0.00,WSW,252,15.0,18.0,-999,0.00,,,-99.99,,2013-12-10 08:08:00,
2013-12-10 02:13:00,18.0,-99.9,0.00,WSW,250,15.0,18.0,-999,0.00,,,-99.99,,2013-12-10 08:13:00,
2013-12-10 02:18:00,17.0,-99.9,0.00,WSW,245,14.0,16.0,-999,0.00,,,-99.99,,2013-12-10 08:18:00,
2013-12-10 02:23:00,17.0,-99.9,0.00,WSW,255,15.0,16.0,-999,0.00,,,-99.99,,2013-12-10 08:23:00,
2013-12-10 02:28:00,17.0,-99.9,0.00,WSW,254,15.0,17.0,-999,0.00,,,-99.99,,2013-12-10 08:28:00,
2013-12-10 02:33:00,17.0,-99.9,0.00,WSW,245,14.0,17.0,-999,0.00,,,-99.99,,2013-12-10 08:33:00,
2013-12-10 02:38:00,17.0,-99.9,0.00,WSW,247,14.0,17.0,-999,0.00,,,-99.99,,2013-12-10 08:38:00,
2013-12-10 02:43:00,17.0,-99.9,0.00,WSW,252,14.0,16.0,-999,0.00,,,-99.99,,2013-12-10 08:43:00,
2013-12-10 02:48:00,17.0,-99.9,0.00,WSW,247,14.0,16.0,-999,0.00,,,-99.99,,2013-12-10 08:48:00,
2013-12-10 02:53:00,17.0,-99.9,0.00,WSW,254,14.0,16.0,-999,0.00,,,-99.99,,2013-12-10 08:53:00,
2013-12-10 02:58:00,16.0,-99.9,0.00,WSW,255,14.0,17.0,-999,0.00,,,-99.99,,2013-12-10 08:58:00,
2013-12-10 03:03:00,16.0,-99.9,0.00,WSW,247,14.0,16.0,-999,0.00,,,-99.99,,2013-12-10 09:03:00,
2013-12-10 03:08:00,16.0,-99.9,0.00,WSW,251,14.0,16.0,-999,0.00,,,-99.99,,2013-12-10 09:08:00,
2013-12-10 03:13:00,16.0,-99.9,0.00,WSW,257,14.0,17.0,-999,0.00,,,-99.99,,2013-12-10 09:13:00,
2013-12-10 03:18:00,16.0,-99.9,0.00,WSW,255,14.0,16.0,-999,0.00,,,-99.99,,2013-12-10 09:18:00,
2013-12-10 03:23:00,16.0,-99.9,0.00,WSW,252,14.0,16.0,-999,0.00,,,-99.99,,2013-12-10 09:23:00,
2013-12-10 03:28:00,16.0,-99.9,0.00,WSW,241,14.0,17.0,-999,0.00,,,-99.99,,2013-12-10 09:28:00,
2013-12-10 03:33:00,16.0,-99.9,0.00,WSW,243,15.0,17.0,-999,0.00,,,-99.99,,2013-12-10 09:33:00,
2013-12-10 03:38:00,17.0,-99.9,0.00,WSW,241,14.0,16.0,-999,0.00,,,-99.99,,2013-12-10 09:38:00,
2013-12-10 03:43:00,17.0,-99.9,0.00,WSW,247,13.0,15.0,-999,0.00,,,-99.99,,2013-12-10 09:43:00,
2013-12-10 03:48:00,17.0,-99.9,0.00,WSW,238,13.0,16.0,-999,0.00,,,-99.99,,2013-12-10 09:48:00,
2013-12-10 03:53:00,17.0,-99.9,0.00,WSW,251,14.0,15.0,-999,0.00,,,-99.99,,2013-12-10 09:53:00,
2013-12-10 03:58:00,17.0,-99.9,0.00,WSW,254,14.0,16.0,-999,0.00,,,-99.99,,2013-12-10 09:58:00,
2013-12-10 04:03:00,17.0,-99.9,0.00,West,259,13.0,15.0,-999,0.00,,,-99.99,,2013-12-10 10:03:00,
2013-12-10 04:08:00,17.0,-99.9,0.00,WSW,243,13.0,15.0,-999,0.00,,,-99.99,,2013-12-10 10:08:00,
2013-12-10 04:13:00,16.0,-99.9,0.00,WSW,251,13.0,15.0,-999,0.00,,,-99.99,,2013-12-10 10:13:00,
2013-12-10 04:18:00,17.0,-99.9,0.00,WSW,255,13.0,16.0,-999,0.00,,,-99.99,,2013-12-10 10:18:00,
2013-12-10 04:23:00,17.0,-99.9,0.00,WSW,250,13.0,16.0,-999,0.00,,,-99.99,,2013-12-10 10:23:00,
2013-12-10 04:28:00,17.0,-99.9,0.00,WSW,254,14.0,15.0,-999,0.00,,,-99.99,,2013-12-10 10:28:00,
2013-12-10 04:33:00,17.0,-99.9,0.00,WSW,254,12.0,14.0,-999,0.00,,,-99.99,,2013-12-10 10:33:00,
2013-12-10 04:38:00,18.0,-99.9,0.00,WSW,250,13.0,15.0,-999,0.00,,,-99.99,,2013-12-10 10:38:00,
2013-12-10 04:43:00,17.0,-99.9,0.00,WSW,248,13.0,15.0,-999,0.00,,,-99.99,,2013-12-10 10:43:00,
2013-12-10 04:48:00,17.0,-99.9,0.00,SW,227,13.0,15.0,-999,0.00,,,-99.99,,2013-12-10 10:48:00,
2013-12-10 04:53:00,17.0,-99.9,0.00,WSW,254,13.0,15.0,-999,0.00,,,-99.99,,2013-12-10 10:53:00,
2013-12-10 04:58:00,17.0,-99.9,0.00,WSW,258,14.0,17.0,-999,0.00,,,-99.99,,2013-12-10 10:58:00,
2013-12-10 05:03:00,17.0,-99.9,0.00,WSW,257,14.0,17.0,-999,0.00,,,-99.99,,2013-12-10 11:03:00,
2013-12-10 05:08:00,17.0,-99.9,0.00,West,261,13.0,17.0,-999,0.00,,,-99.99,,2013-12-10 11:08:00,
2013-12-10 05:13:00,17.0,-99.9,0.00,WSW,258,14.0,16.0,-999,0.00,,,-99.99,,2013-12-10 11:13:00,
2013-12-10 05:18:00,16.0,-99.9,0.00,WSW,254,14.0,17.0,-999,0.00,,,-99.99,,2013-12-10 11:18:00,
2013-12-10 05:23:00,17.0,-99.9,0.00,WSW,257,14.0,17.0,-999,0.00,,,-99.99,,2013-12-10 11:23:00,
2013-12-10 05:28:00,17.0,-99.9,0.00,WSW,258,14.0,17.0,-999,0.00,,,-99.99,,2013-12-10 11:28:00,
2013-12-10 05:33:00,17.0,-99.9,0.00,West,262,14.0,17.0,-999,0.00,,,-99.99,,2013-12-10 11:33:00,
2013-12-10 05:38:00,17.0,-99.9,0.00,WSW,258,13.0,15.0,-999,0.00,,,-99.99,,2013-12-10 11:38:00,
2013-12-10 05:43:00,18.0,-99.9,0.00,WSW,257,13.0,16.0,-999,0.00,,,-99.99,,2013-12-10 11:43:00,
2013-12-10 05:48:00,18.0,-99.9,0.00,West,268,14.0,16.0,-999,0.00,,,-99.99,,2013-12-10 11:48:00,
2013-12-10 05:53:00,19.0,-99.9,0.00,West,264,14.0,17.0,-999,0.00,,,-99.99,,2013-12-10 11:53:00,
2013-12-10 05:58:00,18.0,-99.9,0.00,West,276,14.0,17.0,-999,0.00,,,-99.99,,2013-12-10 11:58:00,
2013-12-10 06:03:00,18.0,-99.9,0.00,WSW,248,14.0,16.0,-999,0.00,,,-99.99,,2013-12-10 12:03:00,
2013-12-10 06:08:00,18.0,-99.9,0.00,WSW,257,12.0,14.0,-999,0.00,,,-99.99,,2013-12-10 12:08:00,
2013-12-10 06:13:00,18.0,-99.9,0.00,West,264,12.0,16.0,-999,0.00,,,-99.99,,2013-12-10 12:13:00,
2013-12-10 06:18:00,18.0,-99.9,0.00,West,264,12.0,15.0,-999,0.00,,,-99.99,,2013-12-10 12:18:00,
2013-12-10 06:23:00,18.0,-99.9,0.00,WSW,250,12.0,14.0,-999,0.00,,,-99.99,,2013-12-10 12:23:00,
2013-12-10 06:28:00,19.0,-99.9,0.00,WSW,257,12.0,14.0,-999,0.00,,,-99.99,,2013-12-10 12:28:00,
2013-12-10 06:33:00,19.0,-99.9,0.00,WSW,240,12.0,15.0,-999,0.00,,,-99.99,,2013-12-10 12:33:00,
2013-12-10 06:38:00,19.0,-99.9,0.00,West,272,12.0,14.0,-999,0.00,,,-99.99,,2013-12-10 12:38:00,
2013-12-10 06:43:00,18.0,-99.9,0.00,West,262,12.0,14.0,-999,0.00,,,-99.99,,2013-12-10 12:43:00,
2013-12-10 06:48:00,18.0,-99.9,0.00,West,259,12.0,14.0,-999,0.00,,,-99.99,,2013-12-10 12:48:00,
2013-12-10 06:53:00,18.0,-99.9,0.00,West,261,12.0,14.0,-999,0.00,,,-99.99,,2013-12-10 12:53:00,
2013-12-10 06:58:00,18.0,-99.9,0.00,WSW,250,12.0,13.0,-999,0.00,,,-99.99,,2013-12-10 12:58:00,
2013-12-10 07:03:00,17.0,-99.9,0.00,WSW,240,12.0,13.0,-999,0.00,,,-99.99,,2013-12-10 13:03:00,
2013-12-10 07:08:00,18.0,-99.9,0.00,WSW,252,12.0,14.0,-999,0.00,,,-99.99,,2013-12-10 13:08:00,
2013-12-10 07:13:00,19.0,-99.9,0.00,WSW,254,13.0,15.0,-999,0.00,,,-99.99,,2013-12-10 13:13:00,
2013-12-10 07:18:00,18.0,-99.9,0.00,West,264,14.0,16.0,-999,0.00,,,-99.99,,2013-12-10 13:18:00,
2013-12-10 07:23:00,18.0,-99.9,0.00,WSW,240,14.0,16.0,-999,0.00,,,-99.99,,2013-12-10 13:23:00,
2013-12-10 07:28:00,18.0,-99.9,0.00,WSW,251,13.0,15.0,-999,0.00,,,-99.99,,2013-12-10 13:28:00,
2013-12-10 07:33:00,18.0,-99.9,0.00,WSW,255,13.0,16.0,-999,0.00,,,-99.99,,2013-12-10 13:33:00,
2013-12-10 07:38:00,18.0,-99.9,0.00,WSW,257,12.0,14.0,-999,0.00,,,-99.99,,2013-12-10 13:38:00,
2013-12-10 07:43:00,18.0,-99.9,0.00,West,261,12.0,14.0,-999,0.00,,,-99.99,,2013-12-10 13:43:00,
2013-12-10 07:48:00,18.0,-99.9,0.00,WSW,244,12.0,15.0,-999,0.00,,,-99.99,,2013-12-10 13:48:00,
2013-12-10 07:53:00,17.0,-99.9,0.00,WSW,244,11.0,13.0,-999,0.00,,,-99.99,,2013-12-10 13:53:00,
2013-12-10 07:58:00,16.0,-99.9,0.00,SW,231,11.0,13.0,-999,0.00,,,-99.99,,2013-12-10 13:58:00,
2013-12-10 08:03:00,16.0,-99.9,0.00,WSW,237,11.0,12.0,-999,0.00,,,-99.99,,2013-12-10 14:03:00,
2013-12-10 08:08:00,16.0,-99.9,0.00,WSW,244,10.0,11.0,-999,0.00,,,-99.99,,2013-12-10 14:08:00,
2013-12-10 08:13:00,16.0,-99.9,0.00,SW,227,10.0,12.0,-999,0.00,,,-99.99,,2013-12-10 14:13:00,
2013-12-10 08:18:00,16.0,-99.9,0.00,SW,223,11.0,12.0,-999,0.00,,,-99.99,,2013-12-10 14:18:00,
2013-12-10 08:23:00,16.0,-99.9,0.00,WSW,247,12.0,14.0,-999,0.00,,,-99.99,,2013-12-10 14:23:00,
2013-12-10 08:28:00,17.0,-99.9,0.00,WSW,243,12.0,13.0,-999,0.00,,,-99.99,,2013-12-10 14:28:00,
2013-12-10 08:33:00,17.0,-99.9,0.00,WSW,240,10.0,11.0,-999,0.00,,,-99.99,,2013-12-10 14:33:00,
2013-12-10 08:38:00,16.0,-99.9,0.00,SW,221,10.0,12.0,-999,0.00,,,-99.99,,2013-12-10 14:38:00,
2013-12-10 08:43:00,17.0,-99.9,0.00,SW,220,11.0,12.0,-999,0.00,,,-99.99,,2013-12-10 14:43:00,
2013-12-10 08:48:00,18.0,-99.9,0.00,SW,228,11.0,12.0,-999,0.00,,,-99.99,,2013-12-10 14:48:00,
2013-12-10 08:53:00,18.0,-99.9,0.00,SW,231,10.0,10.0,-999,0.00,,,-99.99,,2013-12-10 14:53:00,
2013-12-10 08:58:00,19.0,-99.9,0.00,SW,217,9.0,10.0,-999,0.00,,,-99.99,,2013-12-10 14:58:00,
2013-12-10 09:03:00,20.0,-99.9,0.00,WSW,248,9.0,10.0,-999,0.00,,,-99.99,,2013-12-10 15:03:00,
2013-12-10 09:08:00,20.0,-99.9,0.00,WSW,254,8.0,9.0,-999,0.00,,,-99.99,,2013-12-10 15:08:00,
2013-12-10 09:13:00,20.0,-99.9,0.00,West,278,6.0,7.0,-999,0.00,,,-99.99,,2013-12-10 15:13:00,
2013-12-10 09:18:00,21.0,-99.9,0.00,West,272,6.0,7.0,-999,0.00,,,-99.99,,2013-12-10 15:18:00,
2013-12-10 09:23:00,22.0,-99.9,0.00,WNW,292,6.0,7.0,-999,0.00,,,-99.99,,2013-12-10 15:23:00,
2013-12-10 09:28:00,23.0,-99.9,0.00,West,266,6.0,7.0,-999,0.00,,,-99.99,,2013-12-10 15:28:00,
2013-12-10 09:33:00,24.0,-99.9,0.00,SSW,206,5.0,6.0,-999,0.00,,,-99.99,,2013-12-10 15:33:00,
2013-12-10 09:38:00,24.0,-99.9,0.00,SW,217,8.0,10.0,-999,0.00,,,-99.99,,2013-12-10 15:38:00,
2013-12-10 09:43:00,22.0,-99.9,0.00,SSW,202,11.0,12.0,-999,0.00,,,-99.99,,2013-12-10 15:43:00,
2013-12-10 09:48:00,21.0,-99.9,0.00,SW,219,12.0,13.0,-999,0.00,,,-99.99,,2013-12-10 15:48:00,
2013-12-10 09:53:00,22.0,-99.9,0.00,SSW,210,11.0,13.0,-999,0.00,,,-99.99,,2013-12-10 15:53:00,
2013-12-10 09:58:00,21.0,-99.9,0.00,SW,216,12.0,13.0,-999,0.00,,,-99.99,,2013-12-10 15:58:00,
2013-12-10 10:03:00,21.0,-99.9,0.00,SSW,212,10.0,12.0,-999,0.00,,,-99.99,,2013-12-10 16:03:00,
2013-12-10 10:08:00,22.0,-99.9,0.00,SSW,206,11.0,13.0,-999,0.00,,,-99.99,,2013-12-10 16:08:00,
2013-12-10 10:13:00,22.0,-99.9,0.00,SW,226,12.0,14.0,-999,0.00,,,-99.99,,2013-12-10 16:13:00,
2013-12-10 10:18:00,23.0,-99.9,0.00,SW,219,10.0,12.0,-999,0.00,,,-99.99,,2013-12-10 16:18:00,
2013-12-10 10:23:00,24.0,-99.9,0.00,SW,223,10.0,11.0,-999,0.00,,,-99.99,,2013-12-10 16:23:00,
2013-12-10 10:28:00,25.0,-99.9,0.00,SW,224,10.0,11.0,-999,0.00,,,-99.99,,2013-12-10 16:28:00,
2013-12-10 10:33:00,26.0,-99.9,0.00,SW,226,9.0,10.0,-999,0.00,,,-99.99,,2013-12-10 16:33:00,
2013-12-10 10:38:00,27.0,-99.9,0.00,SW,230,7.0,8.0,-999,0.00,,,-99.99,,2013-12-10 16:38:00,
2013-12-10 10:43:00,28.0,-99.9,0.00,SW,226,7.0,8.0,-999,0.00,,,-99.99,,2013-12-10 16:43:00,
2013-12-10 10:48:00,29.0,-99.9,0.00,SW,231,7.0,8.0,-999,0.00,,,-99.99,,2013-12-10 16:48:00,
2013-12-10 10:53:00,29.0,-99.9,0.00,SSW,212,6.0,7.0,-999,0.00,,,-99.99,,2013-12-10 16:53:00,
2013-12-10 10:58:00,29.0,-99.9,0.00,SSW,210,6.0,6.0,-999,0.00,,,-99.99,,2013-12-10 16:58:00,
2013-12-10 11:03:00,28.0,-99.9,0.00,SSW,203,10.0,11.0,-999,0.00,,,-99.99,,2013-12-10 17:03:00,
2013-12-10 11:08:00,28.0,-99.9,0.00,SSW,212,10.0,11.0,-999,0.00,,,-99.99,,2013-12-10 17:08:00,
2013-12-10 11:13:00,28.0,-99.9,0.00,SW,220,12.0,13.0,-999,0.00,,,-99.99,,2013-12-10 17:13:00,
2013-12-10 11:18:00,28.0,-99.9,0.00,SW,214,11.0,12.0,-999,0.00,,,-99.99,,2013-12-10 17:18:00,
2013-12-10 11:23:00,28.0,-99.9,0.00,SW,223,12.0,14.0,-999,0.00,,,-99.99,,2013-12-10 17:23:00,
2013-12-10 11:28:00,28.0,-99.9,0.00,SW,216,12.0,14.0,-999,0.00,,,-99.99,,2013-12-10 17:28:00,
2013-12-10 11:33:00,28.0,-99.9,0.00,SSW,207,13.0,15.0,-999,0.00,,,-99.99,,2013-12-10 17:33:00,
2013-12-10 11:38:00,29.0,-99.9,0.00,SSW,209,12.0,15.0,-999,0.00,,,-99.99,,2013-12-10 17:38:00,
2013-12-10 11:43:00,29.0,-99.9,0.00,SSW,200,13.0,15.0,-999,0.00,,,-99.99,,2013-12-10 17:43:00,
2013-12-10 11:48:00,29.0,-99.9,0.00,South,182,12.0,13.0,-999,0.00,,,-99.99,,2013-12-10 17:48:00,
2013-12-10 11:53:00,30.0,-99.9,0.00,SSW,207,12.0,14.0,-999,0.00,,,-99.99,,2013-12-10 17:53:00,
2013-12-10 11:58:00,30.0,-99.9,0.00,South,179,13.0,14.0,-999,0.00,,,-99.99,,2013-12-10 17:58:00,
2013-12-10 12:03:00,30.0,-99.9,0.00,SSW,193,14.0,16.0,-999,0.00,,,-99.99,,2013-12-10 18:03:00,
2013-12-10 12:13:00,30.0,-99.9,0.00,SSW,193,13.0,15.0,-999,0.00,,,-99.99,,2013-12-10 18:13:00,
2013-12-10 12:18:00,31.0,-99.9,0.00,South,176,14.0,16.0,-999,0.00,,,-99.99,,2013-12-10 18:18:00,
2013-12-10 12:23:00,31.0,-99.9,0.00,South,169,14.0,16.0,-999,0.00,,,-99.99,,2013-12-10 18:23:00,
2013-12-10 12:28:00,31.0,-99.9,0.00,SSW,195,14.0,16.0,-999,0.00,,,-99.99,,2013-12-10 18:28:00,
2013-12-10 12:33:00,32.0,-99.9,0.00,South,185,15.0,17.0,-999,0.00,,,-99.99,,2013-12-10 18:33:00,
2013-12-10 12:38:00,32.0,-99.9,0.00,South,180,15.0,16.0,-999,0.00,,,-99.99,,2013-12-10 18:38:00,
2013-12-10 12:43:00,32.0,-99.9,0.00,South,188,14.0,17.0,-999,0.00,,,-99.99,,2013-12-10 18:43:00,
2013-12-10 12:48:00,32.0,-99.9,0.00,South,179,14.0,16.0,-999,0.00,,,-99.99,,2013-12-10 18:48:00,
2013-12-10 12:53:00,33.0,-99.9,0.00,South,172,14.0,15.0,-999,0.00,,,-99.99,,2013-12-10 18:53:00,
2013-12-10 12:58:00,33.0,-99.9,0.00,SSE,151,12.0,15.0,-999,0.00,,,-99.99,,2013-12-10 18:58:00,
2013-12-10 13:03:00,33.0,-99.9,0.00,South,169,13.0,14.0,-999,0.00,,,-99.99,,2013-12-10 19:03:00,
2013-12-10 13:08:00,34.0,-99.9,0.00,SSE,159,14.0,15.0,-999,0.00,,,-99.99,,2013-12-10 19:08:00,
2013-12-10 13:13:00,34.0,-99.9,0.00,SSE,168,15.0,16.0,-999,0.00,,,-99.99,,2013-12-10 19:13:00,
2013-12-10 13:18:00,34.0,-99.9,0.00,South,172,15.0,18.0,-999,0.00,,,-99.99,,2013-12-10 19:18:00,
2013-12-10 13:23:00,34.0,-99.9,0.00,SSE,151,16.0,18.0,-999,0.00,,,-99.99,,2013-12-10 19:23:00,
2013-12-10 13:28:00,34.0,-99.9,0.00,SSE,154,17.0,19.0,-999,0.00,,,-99.99,,2013-12-10 19:28:00,
2013-12-10 13:33:00,35.0,-99.9,0.00,SSE,149,18.0,19.0,-999,0.00,,,-99.99,,2013-12-10 19:33:00,
2013-12-10 13:38:00,35.0,-99.9,0.00,SE,133,21.0,23.0,-999,0.00,,,-99.99,,2013-12-10 19:38:00,
2013-12-10 13:43:00,35.0,-99.9,0.00,SE,145,21.0,25.0,-999,0.00,,,-99.99,,2013-12-10 19:43:00,
2013-12-10 13:48:00,36.0,-99.9,0.00,SSE,149,19.0,23.0,-999,0.00,,,-99.99,,2013-12-10 19:48:00,
2013-12-10 13:53:00,35.0,-99.9,0.00,SSE,151,19.0,22.0,-999,0.00,,,-99.99,,2013-12-10 19:53:00,
2013-12-10 13:58:00,36.0,-99.9,0.00,SSE,157,20.0,23.0,-999,0.00,,,-99.99,,2013-12-10 19:58:00,
2013-12-10 14:03:00,36.0,-99.9,0.00,SE,140,19.0,21.0,-999,0.00,,,-99.99,,2013-12-10 20:03:00,
2013-12-10 14:08:00,36.0,-99.9,0.00,SSE,151,19.0,23.0,-999,0.00,,,-99.99,,2013-12-10 20:08:00,
2013-12-10 14:13:00,36.0,-99.9,0.00,SSE,161,18.0,21.0,-999,0.00,,,-99.99,,2013-12-10 20:13:00,
2013-12-10 14:18:00,36.0,-99.9,0.00,SSE,168,18.0,21.0,-999,0.00,,,-99.99,,2013-12-10 20:18:00,
2013-12-10 14:23:00,36.0,-99.9,0.00,SE,141,17.0,21.0,-999,0.00,,,-99.99,,2013-12-10 20:23:00,
2013-12-10 14:28:00,36.0,-99.9,0.00,SSE,159,17.0,19.0,-999,0.00,,,-99.99,,2013-12-10 20:28:00,
2013-12-10 14:33:00,36.0,-99.9,0.00,ESE,109,17.0,19.0,-999,0.00,,,-99.99,,2013-12-10 20:33:00,
2013-12-10 14:38:00,37.0,-99.9,0.00,SSE,151,15.0,18.0,-999,0.00,,,-99.99,,2013-12-10 20:38:00,
2013-12-10 14:43:00,37.0,-99.9,0.00,SSE,157,17.0,19.0,-999,0.00,,,-99.99,,2013-12-10 20:43:00,
2013-12-10 14:48:00,37.0,-99.9,0.00,SSE,161,16.0,19.0,-999,0.00,,,-99.99,,2013-12-10 20:48:00,
2013-12-10 14:53:00,37.0,-99.9,0.00,South,182,15.0,18.0,-999,0.00,,,-99.99,,2013-12-10 20:53:00,
2013-12-10 14:58:00,37.0,-99.9,0.00,South,172,15.0,18.0,-999,0.00,,,-99.99,,2013-12-10 20:58:00,
2013-12-10 15:03:00,37.0,-99.9,0.00,SSE,165,16.0,19.0,-999,0.00,,,-99.99,,2013-12-10 21:03:00,
2013-12-10 15:08:00,38.0,-99.9,0.00,SSE,161,15.0,18.0,-999,0.00,,,-99.99,,2013-12-10 21:08:00,
2013-12-10 15:13:00,38.0,-99.9,0.00,South,183,17.0,19.0,-999,0.00,,,-99.99,,2013-12-10 21:13:00,
2013-12-10 15:18:00,38.0,-99.9,0.00,South,169,16.0,19.0,-999,0.00,,,-99.99,,2013-12-10 21:18:00,
2013-12-10 15:23:00,38.0,-99.9,0.00,South,178,16.0,20.0,-999,0.00,,,-99.99,,2013-12-10 21:23:00,
2013-12-10 15:28:00,37.0,-99.9,0.00,SSE,164,17.0,20.0,-999,0.00,,,-99.99,,2013-12-10 21:28:00,
2013-12-10 15:33:00,38.0,-99.9,0.00,SSE,164,15.0,17.0,-999,0.00,,,-99.99,,2013-12-10 21:33:00,
2013-12-10 15:38:00,38.0,-99.9,0.00,SSE,158,14.0,16.0,-999,0.00,,,-99.99,,2013-12-10 21:38:00,
2013-12-10 15:43:00,38.0,-99.9,0.00,SSE,161,13.0,15.0,-999,0.00,,,-99.99,,2013-12-10 21:43:00,
2013-12-10 15:48:00,38.0,-99.9,0.00,SSE,165,13.0,15.0,-999,0.00,,,-99.99,,2013-12-10 21:48:00,
2013-12-10 15:53:00,38.0,-99.9,0.00,SSE,161,12.0,14.0,-999,0.00,,,-99.99,,2013-12-10 21:53:00,
2013-12-10 15:58:00,38.0,-99.9,0.00,SSE,157,10.0,12.0,-999,0.00,,,-99.99,,2013-12-10 21:58:00,
2013-12-10 16:03:00,38.0,-99.9,0.00,SE,141,11.0,12.0,-999,0.00,,,-99.99,,2013-12-10 22:03:00,
2013-12-10 16:08:00,38.0,-99.9,0.00,SE,144,12.0,14.0,-999,0.00,,,-99.99,,2013-12-10 22:08:00,
2013-12-10 16:13:00,37.0,-99.9,0.00,SE,138,9.0,11.0,-999,0.00,,,-99.99,,2013-12-10 22:13:00,
2013-12-10 16:18:00,37.0,-99.9,0.00,SE,135,8.0,10.0,-999,0.00,,,-99.99,,2013-12-10 22:18:00,
2013-12-10 16:28:00,37.0,-99.9,0.00,SSE,147,9.0,10.0,-999,0.00,,,-99.99,,2013-12-10 22:28:00,
2013-12-10 16:33:00,37.0,-99.9,0.00,SSE,147,9.0,10.0,-999,0.00,,,-99.99,,2013-12-10 22:33:00,
2013-12-10 16:38:00,36.0,-99.9,0.00,SSE,148,8.0,9.0,-999,0.00,,,-99.99,,2013-12-10 22:38:00,
2013-12-10 16:43:00,35.0,-99.9,0.00,SE,135,8.0,10.0,-999,0.00,,,-99.99,,2013-12-10 22:43:00,
2013-12-10 16:48:00,36.0,-99.9,0.00,SE,140,9.0,10.0,-999,0.00,,,-99.99,,2013-12-10 22:48:00,
2013-12-10 16:53:00,35.0,-99.9,0.00,SSE,158,7.0,8.0,-999,0.00,,,-99.99,,2013-12-10 22:53:00,
2013-12-10 16:58:00,35.0,-99.9,0.00,SSE,158,5.0,5.0,-999,0.00,,,-99.99,,2013-12-10 22:58:00,
2013-12-10 17:03:00,36.0,-99.9,0.00,South,169,0.0,4.0,-999,0.00,,,-99.99,,2013-12-10 23:03:00,
2013-12-10 17:08:00,36.0,-99.9,0.00,South,171,5.0,7.0,-999,0.00,,,-99.99,,2013-12-10 23:08:00,
2013-12-10 17:13:00,35.0,-99.9,0.00,SSE,161,5.0,6.0,-999,0.00,,,-99.99,,2013-12-10 23:13:00,
2013-12-10 17:18:00,35.0,-99.9,0.00,North,0,0.0,0.0,-999,0.00,,,-99.99,,2013-12-10 23:18:00,
2013-12-10 17:23:00,35.0,-99.9,0.00,North,0,0.0,0.0,-999,0.00,,,-99.99,,2013-12-10 23:23:00,
2013-12-10 17:28:00,35.0,-99.9,0.00,North,0,0.0,0.0,-999,0.00,,,-99.99,,2013-12-10 23:28:00,
2013-12-10 17:33:00,35.0,-99.9,0.00,North,0,0.0,0.0,-999,0.00,,,-99.99,,2013-12-10 23:33:00,
2013-12-10 17:38:00,36.0,-99.9,0.00,North,0,0.0,0.0,-999,0.00,,,-99.99,,2013-12-10 23:38:00,
2013-12-10 17:43:00,35.0,-99.9,0.00,North,0,0.0,0.0,-999,0.00,,,-99.99,,2013-12-10 23:43:00,
2013-12-10 17:48:00,33.0,-99.9,0.00,North,0,0.0,0.0,-999,0.00,,,-99.99,,2013-12-10 23:48:00,
2013-12-10 17:53:00,33.0,-99.9,0.00,North,0,0.0,0.0,-999,0.00,,,-99.99,,2013-12-10 23:53:00,
2013-12-10 17:58:00,33.0,-99.9,0.00,North,0,0.0,0.0,-999,0.00,,,-99.99,,2013-12-10 23:58:00,
2013-12-10 18:03:00,31.0,-99.9,0.00,North,357,5.0,6.0,-999,0.00,,,-99.99,,2013-12-11 00:03:00,
2013-12-10 18:08:00,30.0,-99.9,0.00,North,8,5.0,7.0,-999,0.00,,,-99.99,,2013-12-11 00:08:00,
2013-12-10 18:13:00,29.0,-99.9,0.00,North,360,2.0,4.0,-999,0.00,,,-99.99,,2013-12-11 00:13:00,
2013-12-10 18:18:00,30.0,-99.9,0.00,North,0,0.0,0.0,-999,0.00,,,-99.99,,2013-12-11 00:18:00,
2013-12-10 18:23:00,32.0,-99.9,0.00,North,0,0.0,0.0,-999,0.00,,,-99.99,,2013-12-11 00:23:00,
2013-12-10 18:28:00,31.0,-99.9,0.00,North,0,0.0,0.0,-999,0.00,,,-99.99,,2013-12-11 00:28:00,
2013-12-10 18:38:00,30.0,-99.9,0.00,NNE,16,6.0,7.0,-999,0.00,,,-99.99,,2013-12-11 00:38:00,
2013-12-10 18:43:00,29.0,-99.9,0.00,North,360,7.0,8.0,-999,0.00,,,-99.99,,2013-12-11 00:43:00,
2013-12-10 18:48:00,28.0,-99.9,0.00,North,351,7.0,9.0,-999,0.00,,,-99.99,,2013-12-11 00:48:00,
2013-12-10 18:53:00,27.0,-99.9,0.00,NNW,347,8.0,9.0,-999,0.00,,,-99.99,,2013-12-11 00:53:00,
2013-12-10 18:58:00,27.0,-99.9,0.00,North,11,6.0,7.0,-999,0.00,,,-99.99,,2013-12-11 00:58:00,
2013-12-10 19:03:00,26.0,-99.9,0.00,NNE,27,7.0,8.0,-999,0.00,,,-99.99,,2013-12-11 01:03:00,
2013-12-10 19:08:00,26.0,-99.9,0.00,NNE,25,6.0,7.0,-999,0.00,,,-99.99,,2013-12-11 01:08:00,
2013-12-10 19:13:00,26.0,-99.9,0.00,North,6,8.0,9.0,-999,0.00,,,-99.99,,2013-12-11 01:13:00,
2013-12-10 19:18:00,25.0,-99.9,0.00,North,11,6.0,8.0,-999,0.00,,,-99.99,,2013-12-11 01:18:00,
2013-12-10 19:23:00,26.0,-99.9,0.00,NE,41,6.0,8.0,-999,0.00,,,-99.99,,2013-12-11 01:23:00,
2013-12-10 19:28:00,26.0,-99.9,0.00,NNE,21,7.0,8.0,-999,0.00,,,-99.99,,2013-12-11 01:28:00,
2013-12-10 19:33:00,25.0,-99.9,0.00,NNE,20,7.0,7.0,-999,0.00,,,-99.99,,2013-12-11 01:33:00,
2013-12-10 19:38:00,25.0,-99.9,0.00,NNE,23,6.0,6.0,-999,0.00,,,-99.99,,2013-12-11 01:38:00,
2013-12-10 19:43:00,25.0,-99.9,0.00,NNE,21,6.0,6.0,-999,0.00,,,-99.99,,2013-12-11 01:43:00,
2013-12-10 19:48:00,26.0,-99.9,0.00,North,0,0.0,0.0,-999,0.00,,,-99.99,,2013-12-11 01:48:00,
2013-12-10 19:53:00,26.0,-99.9,0.00,North,0,0.0,0.0,-999,0.00,,,-99.99,,2013-12-11 01:53:00,
2013-12-10 19:58:00,27.0,-99.9,0.00,North,0,0.0,0.0,-999,0.00,,,-99.99,,2013-12-11 01:58:00,
2013-12-10 20:08:00,23.0,-99.9,0.00,NNW,333,5.0,7.0,-999,0.00,,,-99.99,,2013-12-11 02:08:00,
2013-12-10 20:13:00,24.0,-99.9,0.00,NW,316,5.0,6.0,-999,0.00,,,-99.99,,2013-12-11 02:13:00,
2013-12-10 20:18:00,24.0,-99.9,0.00,NNW,331,5.0,5.0,-999,0.00,,,-99.99,,2013-12-11 02:18:00,
2013-12-10 20:23:00,25.0,-99.9,0.00,NW,317,2.0,3.0,-999,0.00,,,-99.99,,2013-12-11 02:23:00,
2013-12-10 20:28:00,26.0,-99.9,0.00,North,0,0.0,0.0,-999,0.00,,,-99.99,,2013-12-11 02:28:00,
2013-12-10 20:33:00,26.0,-99.9,0.00,North,0,0.0,0.0,-999,0.00,,,-99.99,,2013-12-11 02:33:00,
2013-12-10 20:38:00,26.0,-99.9,0.00,North,0,0.0,0.0,-999,0.00,,,-99.99,,2013-12-11 02:38:00,
2013-12-10 20:43:00,27.0,-99.9,0.00,North,0,0.0,0.0,-999,0.00,,,-99.99,,2013-12-11 02:43:00,
2013-12-10 20:48:00,26.0,-99.9,0.00,North,0,0.0,0.0,-999,0.00,,,-99.99,,2013-12-11 02:48:00,
2013-12-10 20:53:00,27.0,-99.9,0.00,North,0,0.0,0.0,-999,0.00,,,-99.99,,2013-12-11 02:53:00,
2013-12-10 20:58:00,27.0,-99.9,0.00,North,0,0.0,0.0,-999,0.00,,,-99.99,,2013-12-11 02:58:00,
2013-12-10 21:03:00,28.0,-99.9,0.00,North,0,0.0,0.0,-999,0.00,,,-99.99,,2013-12-11 03:03:00,
2013-12-10 21:08:00,26.0,-99.9,0.00,North,0,0.0,0.0,-999,0.00,,,-99.99,,2013-12-11 03:08:00,
2013-12-10 21:13:00,23.0,-99.9,0.00,WNW,288,6.0,6.0,-999,0.00,,,-99.99,,2013-12-11 03:13:00,
2013-12-10 21:18:00,24.0,-99.9,0.00,WNW,303,7.0,8.0,-999,0.00,,,-99.99,,2013-12-11 03:18:00,
2013-12-10 21:23:00,25.0,-99.9,0.00,WNW,300,8.0,8.0,-999,0.00,,,-99.99,,2013-12-11 03:23:00,
2013-12-10 21:28:00,25.0,-99.9,0.00,West,281,8.0,9.0,-999,0.00,,,-99.99,,2013-12-11 03:28:00,
2013-12-10 21:33:00,25.0,-99.9,0.00,WNW,290,8.0,8.0,-999,0.00,,,-99.99,,2013-12-11 03:33:00,
2013-12-10 21:38:00,25.0,-99.9,0.00,WNW,300,8.0,9.0,-999,0.00,,,-99.99,,2013-12-11 03:38:00,
2013-12-10 21:43:00,25.0,-99.9,0.00,West,271,9.0,10.0,-999,0.00,,,-99.99,,2013-12-11 03:43:00,
2013-12-10 21:48:00,24.0,-99.9,0.00,West,268,8.0,9.0,-999,0.00,,,-99.99,,2013-12-11 03:48:00,
2013-12-10 21:53:00,25.0,-99.9,0.00,West,271,9.0,10.0,-999,0.00,,,-99.99,,2013-12-11 03:53:00,
2013-12-10 22:03:00,24.0,-99.9,0.00,WNW,286,10.0,12.0,-999,0.00,,,-99.99,,2013-12-11 04:03:00,
2013-12-10 22:08:00,23.0,-99.9,0.00,WNW,292,10.0,11.0,-999,0.00,,,-99.99,,2013-12-11 04:08:00,
2013-12-10 22:13:00,23.0,-99.9,0.00,WNW,292,11.0,12.0,-999,0.00,,,-99.99,,2013-12-11 04:13:00,
2013-12-10 22:18:00,24.0,-99.9,0.00,WNW,290,11.0,12.0,-999,0.00,,,-99.99,,2013-12-11 04:18:00,
2013-12-10 22:23:00,24.0,-99.9,0.00,WNW,290,10.0,12.0,-999,0.00,,,-99.99,,2013-12-11 04:23:00,
2013-12-10 22:28:00,23.0,-99.9,0.00,WNW,300,10.0,12.0,-999,0.00,,,-99.99,,2013-12-11 04:28:00,
2013-12-10 22:33:00,24.0,-99.9,0.00,WNW,298,10.0,11.0,-999,0.00,,,-99.99,,2013-12-11 04:33:00,
2013-12-10 22:38:00,24.0,-99.9,0.00,WNW,300,10.0,12.0,-999,0.00,,,-99.99,,2013-12-11 04:38:00,
2013-12-10 22:43:00,24.0,-99.9,0.00,WNW,298,10.0,13.0,-999,0.00,,,-99.99,,2013-12-11 04:43:00,
2013-12-10 22:48:00,24.0,-99.9,0.00,WNW,289,11.0,13.0,-999,0.00,,,-99.99,,2013-12-11 04:48:00,
2013-12-10 22:53:00,24.0,-99.9,0.00,WNW,292,11.0,12.0,-999,0.00,,,-99.99,,2013-12-11 04:53:00,
2013-12-10 22:58:00,24.0,-99.9,0.00,WNW,292,12.0,14.0,-999,0.00,,,-99.99,,2013-12-11 04:58:00,
2013-12-10 23:03:00,24.0,-99.9,0.00,WNW,295,13.0,14.0,-999,0.00,,,-99.99,,2013-12-11 05:03:00,
2013-12-10 23:08:00,24.0,-99.9,0.00,WNW,300,12.0,14.0,-999,0.00,,,-99.99,,2013-12-11 05:08:00,
2013-12-10 23:13:00,24.0,-99.9,0.00,WNW,293,13.0,16.0,-999,0.00,,,-99.99,,2013-12-11 05:13:00,
2013-12-10 23:18:00,24.0,-99.9,0.00,WNW,303,12.0,14.0,-999,0.00,,,-99.99,,2013-12-11 05:18:00,
2013-12-10 23:23:00,25.0,-99.9,0.00,NW,313,14.0,17.0,-999,0.00,,,-99.99,,2013-12-11 05:23:00,
2013-12-10 23:28:00,26.0,-99.9,0.00,WNW,295,15.0,19.0,-999,0.00,,,-99.99,,2013-12-11 05:28:00,
2013-12-10 23:38:00,26.0,-99.9,0.00,NNW,331,18.0,22.0,-999,0.00,,,-99.99,,2013-12-11 05:38:00,
2013-12-10 23:43:00,26.0,-99.9,0.00,NW,305,17.0,20.0,-999,0.00,,,-99.99,,2013-12-11 05:43:00,
2013-12-10 23:48:00,26.0,-99.9,0.00,NW,314,17.0,20.0,-999,0.00,,,-99.99,,2013-12-11 05:48:00,
2013-12-10 23:53:00,26.0,-99.9,0.00,NW,319,16.0,19.0,-999,0.00,,,-99.99,,2013-12-11 05:53:00,
2013-12-10 23:58:00,26.0,-99.9,0.00,NW,310,15.0,19.0,-999,0.00,,,-99.99,,2013-12-11 05:58:00,